Poplar Bluff, MO

1:04 AM CDT on March 26, 2017 (GMT -0500)
Poplar Bluff Municipal

Weather History for KPOF - May, 2013

Change the Weather History Date:

Sunday, May 5, 2013

  Actual Average Record
Temperature  
Mean Temperature 48 °F -  
Max Temperature 55 °F 76 °F 93 °F (1952)
Min Temperature 41 °F 51 °F 35 °F (1944)
Degree Days  
Heating Degree Days 17    
Moisture  
Dew Point 46 °F    
Average Humidity 86    
Maximum Humidity 94    
Minimum Humidity 74    
Precipitation  
Precipitation 0.38 in - - ()
Sea Level Pressure  
Sea Level Pressure 29.92 in    
Wind  
Wind Speed 7 mph (NW)    
Max Wind Speed 15 mph    
Max Gust Speed -    
Visibility 10 miles    
Events Rain    
Averages and records for this station are not official NWS values.
T = Trace of Precipitation, MM = Missing Value Source: NWS Daily Summary

Daily Weather History Graph

Daily Weather History Graph

Search for Another Location

Airport or City:

Trip Planner

Search our weather history database for the weather conditions in past years. The results will help you decide how hot, cold, wet, or windy it might be!

Date:

Astronomy

May. 05, 2013 Rise Set
Actual Time 6:02 AM CDT 7:53 PM CDT
Civil Twilight 5:34 AM CDT 8:21 PM CDT
Nautical Twilight 5:00 AM CDT 8:55 PM CDT
Astronomical Twilight 4:24 AM CDT 9:32 PM CDT
Moon 3:26 AM CDT (5/5) 3:58 PM CDT (5/5)
Length of Visible Light 14h 47m
Length of Day
13h 50m
Waning Crescent, 18% of the Moon is Illuminated
May 5
Waning Crescent
May 9
New
May 17
First Quarter
May 24
Full
May 31
Last Quarter

Hourly Weather History & Observations

Time (CDT) Temp. Windchill Dew Point Humidity Pressure Visibility Wind Dir Wind Speed Gust Speed Precip Events Conditions
12:53 AM 48.0 °F - 39.9 °F 74% 29.96 in 10.0 mi North 8.1 mph - N/A   Overcast
1:53 AM 46.0 °F 42.5 °F 39.9 °F 79% 29.95 in 10.0 mi North 6.9 mph - N/A   Overcast
2:53 AM 46.0 °F 43.1 °F 39.0 °F 76% 29.94 in 10.0 mi North 5.8 mph - N/A   Overcast
3:53 AM 45.0 °F 41.2 °F 39.0 °F 80% 29.94 in 10.0 mi North 6.9 mph - N/A   Overcast
4:53 AM 44.1 °F 40.1 °F 37.9 °F 79% 29.94 in 10.0 mi North 6.9 mph - N/A   Overcast
5:53 AM 42.1 °F - 37.9 °F 85% 29.96 in 10.0 mi Calm Calm - N/A   Clear
6:53 AM 41.0 °F 37.1 °F 37.0 °F 86% 29.96 in 10.0 mi WNW 5.8 mph - N/A   Clear
7:53 AM 43.0 °F 39.5 °F 37.0 °F 80% 29.96 in 10.0 mi NNW 5.8 mph - N/A   Clear
8:53 AM 44.1 °F 40.1 °F 37.9 °F 79% 29.95 in 10.0 mi NW 6.9 mph - 0.00 in Rain Light Rain
9:53 AM 45.0 °F 40.6 °F 41.0 °F 86% 29.94 in 10.0 mi NW 8.1 mph - 0.01 in Rain Light Rain
10:53 AM 46.0 °F 41.9 °F 42.1 °F 86% 29.95 in 6.0 mi NW 8.1 mph - 0.06 in Rain Light Rain
11:53 AM 46.9 °F - 44.1 °F 90% 29.94 in 6.0 mi NW 11.5 mph - 0.12 in Rain Light Rain
1:53 PM 51.1 °F - 46.9 °F 86% 29.89 in 10.0 mi WNW 15.0 mph - 0.04 in Rain Light Rain
2:45 PM 53.6 °F - 48.2 °F 82% 29.90 in 10.0 mi NW 8.1 mph - 0.00 in   Overcast
2:53 PM 53.1 °F - 48.9 °F 86% 29.90 in 10.0 mi WNW 8.1 mph - 0.00 in Rain Light Rain
3:05 PM 53.6 °F - 48.2 °F 82% 29.90 in 10.0 mi NW 6.9 mph - 0.00 in Rain Light Rain
3:37 PM 53.6 °F - 50.0 °F 88% 29.89 in 8.0 mi West 4.6 mph - 0.01 in Rain Light Rain
3:53 PM 54.0 °F - 51.1 °F 90% 29.90 in 10.0 mi WSW 3.5 mph - 0.02 in   Overcast
4:53 PM 55.0 °F - 52.0 °F 89% 29.89 in 7.0 mi WNW 10.4 mph - 0.07 in Rain Light Rain
5:53 PM 55.0 °F - 52.0 °F 89% 29.89 in 10.0 mi WNW 8.1 mph - 0.05 in Rain Light Rain
6:53 PM 55.0 °F - 52.0 °F 89% 29.89 in 10.0 mi WNW 10.4 mph - 0.01 in Rain Light Rain
7:53 PM 54.0 °F - 51.1 °F 90% 29.90 in 10.0 mi WNW 6.9 mph - 0.00 in   Overcast
8:41 PM 53.6 °F - 51.8 °F 94% 29.89 in 10.0 mi West 3.5 mph - 0.00 in   Overcast
8:53 PM 54.0 °F - 51.1 °F 90% 29.89 in 10.0 mi West 4.6 mph - 0.00 in   Overcast
9:38 PM 53.6 °F - 51.8 °F 94% 29.89 in 10.0 mi NW 4.6 mph - N/A   Mostly Cloudy
9:53 PM 53.1 °F - 50.0 °F 89% 29.90 in 10.0 mi NW 4.6 mph - N/A   Partly Cloudy
10:10 PM 53.6 °F - 51.8 °F 94% 29.89 in 10.0 mi NW 4.6 mph - N/A   Mostly Cloudy
10:44 PM 53.6 °F - 51.8 °F 94% 29.89 in 10.0 mi NW 4.6 mph - N/A   Partly Cloudy
10:53 PM 53.1 °F - 51.1 °F 93% 29.90 in 10.0 mi NNW 3.5 mph - N/A   Partly Cloudy
11:53 PM 52.0 °F - 50.0 °F 93% 29.88 in 10.0 mi NW 3.5 mph - N/A   Mostly Cloudy